Snowfall_Accumulation
0.0 0.0 0.0 0.0 0.0 0.0 0.0 0.0 0.0 0.0 0.0 0.0 0.0 0.0 0.0 0.0 0.0 0.0 0.0 0.0 0.0 0.0 0.0 0.0 0.0 0.0 0.0 0.0 0.0 0.0 0.0 0.0 0.0 0.0 0.0 0.0 0.0 0.0 0.0 0.0 0.0 0.0 0.0
0.0 0.0 0.0 0.0 0.0 0.0 0.0 0.0 0.0 0.0 0.0 0.0 0.0 0.0 0.0 0.0 0.0 0.0 0.0 0.0 0.0 0.0 0.0 0.0 0.0 0.0 0.0 0.0 0.0 0.0 0.0 0.0 0.0 0.0 0.0 0.0 0.0 0.0 0.0 0.0 0.0 0.0 0.0
0.0 0.0 0.0 0.0 0.0 0.0 0.0 0.0 0.0 0.0 0.0 0.0 0.0 0.0 0.0 0.0 0.0 0.0 0.0 0.0 0.0 0.0 0.0 0.0 0.0 0.0 0.0 0.0 0.0 0.0 0.0 0.0 0.1 0.3 0.0 0.0 0.0 0.0 0.0 0.0 0.1 0.0 0.0
0.0 0.0 0.0 0.0 0.0 0.0 0.0 0.0 0.0 0.0 0.0 0.0 0.0 0.0 0.0 0.0 0.0 0.0 0.0 0.0 0.0 0.0 0.0 0.0 0.0 0.0 0.0 0.0 0.1 0.1 0.1 0.1 0.1 0.0 0.0 0.0 0.0 0.0 0.0 0.3 0.3 0.3 0.1
0.0 0.0 0.0 0.0 0.0 0.0 0.0 0.0 0.0 0.0 0.0 0.0 0.0 0.0 0.0 0.0 0.0 0.0 0.0 0.0 0.0 0.0 0.0 0.0 0.0 0.0 0.0 0.0 0.0 0.0 0.0 0.1 0.1 0.1 0.1 0.1 0.1 0.2 0.5 0.2 0.3 0.1 0.4
0.2 0.0 0.0 0.0 0.0 0.0 0.0 0.0 0.0 0.0 0.0 0.0 0.0 0.0 0.0 0.0 0.0 0.0 0.0 0.0 0.0 0.0 0.0 0.0 0.0 0.0 0.0 0.0 0.0 0.0 0.0 0.1 0.3 0.4 0.3 0.2 0.1 0.1 0.7 1.2 0.9 0.7 0.6
0.4 0.2 0.4 1.4 0.0 0.8 0.9 0.0 0.0 0.1 0.0 0.0 0.0 0.0 0.0 0.0 0.0 0.0 0.0 0.0 0.0 0.0 0.0 0.0 0.0 0.0 0.0 0.0 0.0 0.0 0.0 0.1 0.2 0.4 0.5 0.4 0.6 0.4 0.6 0.9 0.9 0.9 0.7
0.7 0.6 1.0 1.1 1.9 2.4 2.5 1.3 1.0 0.4 0.5 0.6 1.0 0.0 0.0 0.0 0.0 0.0 0.0 0.0 0.0 0.0 0.0 0.0 0.0 0.0 0.0 0.0 0.1 0.1 0.1 0.0 0.0 0.1 0.2 0.2 0.3 0.3 0.3 0.3 0.7 0.3 0.5
1.6 1.6 2.1 2.4 1.6 1.5 1.2 1.0 0.9 1.1 0.6 1.4 0.3 0.2 0.5 0.0 0.0 0.0 0.0 0.0 0.0 0.0 0.0 0.0 0.0 0.0 0.1 0.1 0.1 0.1 0.0 0.0 0.1 0.0 0.2 0.0 0.1 0.4 0.3 0.7 0.9 2.5 1.7
4.9 6.3 2.3 1.5 1.8 3.5 2.7 4.1 5.4 2.5 2.9 3.3 6.0 2.9 4.4 1.3 2.0 2.8 0.0 0.0 0.0 0.0 0.0 0.0 0.0 0.0 0.2 0.1 0.0 0.1 0.1 0.1 0.3 0.2 0.7 0.6 0.4 1.6 1.6 1.7 4.1 5.1 4.1
5.6 5.7 4.9 5.6 7.4 7.4 7.0 7.8 11.2 13.1 9.8 4.5 5.5 7.0 7.2 5.1 7.2 8.5 3.5 5.7 3.2 0.0 0.0 0.0 0.0 0.2 0.3 0.1 0.0 0.0 2.1 0.5 1.9 1.5 3.3 3.0 2.7 2.3 3.4 2.6 2.0 2.0 3.6
6.1 5.3 6.1 6.1 7.0 8.4 8.6 9.7 9.7 11.1 14.3 16.6 15.3 13.7 13.5 12.6 12.6 10.5 10.1 9.9 7.4 5.7 3.7 2.5 1.7 0.6 0.1 1.0 0.7 0.5 2.1 1.8 2.8 2.8 6.9 14.8 12.5 13.7 12.4 11.0 9.5 8.3 7.6
5.3 6.2 5.9 5.6 5.6 5.2 5.4 6.6 7.6 8.1 7.9 8.1 8.9 10.9 12.4 13.3 14.1 13.8 14.8 14.0 12.5 10.8 10.8 9.7 8.1 4.5 2.7 3.0 2.8 4.4 5.7 2.9 7.2 15.3 15.6 14.9 13.8 11.8 10.1 8.7 7.6 6.3 5.1
0.9 1.1 2.0 2.5 2.7 2.8 3.0 3.2 3.5 4.5 5.4 6.2 6.4 6.3 6.4 6.1 7.4 7.9 8.3 8.1 7.9 10.3 10.6 11.9 10.9 12.4 13.9 10.6 15.9 14.7 10.1 13.6 14.3 14.6 14.2 12.8 10.4 9.3 8.1 7.1 8.2 6.7 5.2
0.1 0.5 0.7 0.9 1.2 1.4 1.8 1.7 1.8 3.1 2.5 2.3 3.6 3.4 3.7 5.6 7.5 6.5 6.5 8.2 8.4 9.2 13.8 19.8 19.8 20.0 19.5 19.6 18.5 17.5 16.4 15.0 13.4 12.3 11.0 9.6 7.6 6.3 5.2 4.2 3.6 4.6 6.1
0.0 0.6 0.2 0.8 0.4 0.7 0.8 1.4 1.9 1.8 1.8 1.2 1.3 4.9 5.6 10.2 13.9 13.4 13.3 13.3 13.9 13.3 12.8 12.9 12.8 11.8 11.4 11.4 10.3 10.3 9.4 8.9 7.4 6.7 5.9 4.9 4.7 4.2 5.0 4.8 3.7 4.4 5.1
1.6 1.5 1.4 1.2 1.5 2.2 2.3 1.0 1.4 3.7 5.5 7.2 10.0 10.2 9.5 10.4 9.2 9.3 8.8 8.1 8.0 6.5 8.2 7.9 7.4 6.8 6.2 4.8 4.6 4.4 4.6 3.9 2.7 4.7 3.8 3.3 4.2 4.3 2.5 3.5 3.0 3.0 2.0
8.9 7.2 4.2 6.0 9.1 10.3 11.5 12.4 12.7 13.5 13.2 14.1 14.1 12.3 11.7 11.0 9.5 8.6 8.1 6.3 6.2 5.8 5.4 4.9 4.3 3.5 2.7 2.2 1.7 0.9 1.5 1.5 1.8 2.4 2.1 1.7 2.3 2.5 2.7 2.0 1.7 1.8 1.4
16.4 17.6 17.5 17.0 15.8 13.9 12.1 11.5 11.1 11.0 11.0 11.4 11.1 10.1 9.4 8.3 6.9 5.9 4.9 5.1 5.2 4.1 3.1 2.4 1.7 1.3 1.4 1.4 1.1 1.5 1.6 1.9 1.6 1.3 1.4 1.3 1.0 1.9 2.0 1.5 1.2 1.0 1.1
10.6 9.9 8.9 8.4 8.1 7.6 7.1 6.5 6.3 6.1 5.8 5.5 5.1 4.9 3.6 2.4 2.5 1.6 1.3 1.3 1.4 1.6 1.5 1.1 0.7 0.5 0.9 1.0 0.9 0.8 1.3 1.3 1.2 1.2 1.1 1.0 0.9 0.9 1.1 1.3 1.3 1.4 1.2
6.5 6.4 5.9 5.4 5.2 4.8 4.3 3.6 3.2 3.1 2.6 2.2 2.3 1.3 0.6 1.1 1.6 1.1 0.7 0.8 1.2 1.0 1.1 1.1 0.6 0.9 0.9 0.9 1.3 1.6 1.5 1.3 1.3 1.5 1.4 1.3 1.4 1.8 1.6 1.7 1.6 1.3 1.1
3.6 3.1 2.4 2.0 1.7 1.6 1.4 1.6 1.8 1.6 1.0 1.2 0.8 0.7 0.7 0.5 1.1 1.1 1.3 1.2 0.7 0.8 0.9 1.6 1.9 1.6 1.7 1.7 2.0 2.5 1.7 1.8 2.0 2.1 2.3 1.6 2.0 2.0 2.2 2.3 2.3 2.3 1.9
1.4 1.1 1.1 1.0 0.9 0.8 0.9 0.6 0.8 0.8 0.9 1.7 1.7 1.5 0.6 0.8 0.6 0.5 0.9 1.1 1.8 2.6 2.4 2.8 3.2 2.6 2.0 2.1 2.5 2.9 3.0 2.1 1.8 2.6 2.9 2.0 1.7 1.8 2.0 2.1 1.8 2.1 1.7
0.7 0.6 0.8 0.7 0.6 0.8 1.1 1.1 0.9 1.0 0.5 1.7 2.3 2.2 2.1 2.0 2.5 2.4 2.9 3.4 3.9 4.0 3.8 3.8 3.9 3.8 3.6 3.3 3.1 2.8 2.6 2.3 2.3 2.2 2.8 3.2 2.2 1.6 2.1 2.1 1.9 1.9 1.8
0.6 0.6 0.5 0.6 1.1 1.0 1.6 1.7 1.6 1.8 2.0 2.1 2.3 1.9 1.9 2.6 3.2 3.4 3.4 2.8 2.4 2.7 2.7 2.3 3.3 3.5 3.6 4.0 4.2 4.0 3.8 2.8 3.1 3.2 3.8 3.5 2.8 2.6 2.7 2.4 2.1 2.4 2.1
0.4 0.5 1.2 1.4 1.4 2.0 2.3 2.5 2.9 3.0 3.0 3.0 3.5 3.6 3.1 2.6 2.0 2.0 1.6 1.4 1.2 1.0 1.4 1.6 1.3 1.5 1.6 1.7 1.8 2.4 2.1 2.4 3.2 3.4 3.8 3.6 3.4 3.1 3.0 2.8 2.3 2.9 2.9